sat.trackr.live / text

‹ back to catalog

STARLINK-31520

NORAD 59210 · 2024-046K

PAYLOAD ACTIVE UNKNOWN

§ Identity

Operator
Country
US
Launch date
2024-03-11
Launch site
AFWTR
Launch vehicle
Mass (kg)
RCS (m²)

Purposes: comms

External: N2YO · Heavens-Above · Gunter

§ Orbital elements

Epoch: 2026-05-24T18:02:23.744544Z

Period
94.11 min
Inclination
53.1586°
Eccentricity
0.0000921
Mean motion
15.30194163 rev/d
Perigee alt
474.6 km
Apogee alt
475.9 km
Semi-major
6,853.4 km
B*
-5.6325e-6
RAAN
162.1308°
Arg perigee
89.9441°
Mean anomaly
270.1665°
Rev number
12,469

§ Raw data

STARLINK-315201 59210U 24046K   26144.75166371 -.00000526  00000+0 -56325-5 0  99962 59210  53.1586 162.1308 0000921  89.9441 270.1665 15.30194163124697

JSON: /api/v1/satellites/59210 · /tle

For live sub-satellite position, see the globe view (requires WebGL).

§ Visibility from observer

Set your observer location to see the next 7 days of passes ≥ 10°. The values pass through the URL so the page stays shareable.

No JS? Fill the form by hand. The geolocation button needs JavaScript.